Weather History for Chicago Midway, IL

Change the Weather History Date:

Tuesday, November 5, 2013

  Actual Average Record
Temperature  
Mean Temperature 54 °F 47 °F  
Max Temperature 56 °F 54 °F 79 °F (1978)
Min Temperature 51 °F 39 °F 11 °F (1951)
Degree Days  
Heating Degree Days 11 18  
Month to date heating degree days 86 88  
Since 1 July heating degree days 487 519  
Cooling Degree Days 0 0  
Month to date cooling degree days 0 0  
Year to date cooling degree days 1091 1045  
Growing Degree Days 4 (Base 50)    
Moisture  
Dew Point 47 °F    
Average Humidity 78    
Maximum Humidity 94    
Minimum Humidity 54    
Precipitation  
Precipitation 0.02 in 0.12 in 1.26 in (1990)
Month to date precipitation 0.12 0.58  
Year to date precipitation 31.24 33.68  
Sea Level Pressure  
Sea Level Pressure 30.18 in    
Wind  
Wind Speed 9 mph (South)    
Max Wind Speed 22 mph    
Max Gust Speed 31 mph    
Visibility 9 miles    
Events Rain    
T = Trace of Precipitation, MM = Missing Value Source: NWS Daily Summary

Daily Weather History Graph

Daily Weather History Graph

Search for Another Location

Airport:

Trip Planner

Search our weather history database for the weather conditions in past years. The results will help you decide how hot, cold, wet, or windy it might be!

Date:

Astronomy

Nov. 05, 2013 Rise Set
Actual Time 6:28 AM CST 4:40 PM CST
Civil Twilight 5:59 AM CST 5:09 PM CST
Nautical Twilight 5:26 AM CST 5:42 PM CST
Astronomical Twilight 4:53 AM CST 6:15 PM CST
Moon 8:44 AM CST (11/5) 6:40 PM CST (11/5)
Length of Visible Light 11h 10m
Length of Day
10h 11m
Waxing Crescent, 7% of the Moon is Illuminated
Nov 5
Waxing Crescent
Nov 9
First Quarter
Nov 17
Full
Nov 25
Last Quarter
Dec 2
New

Hourly Weather History & Observations

Time (CST) Temp. Dew Point Humidity Pressure Visibility Wind Dir Wind Speed Gust Speed Precip Events Conditions
12:51 AM 53.1 °F 43.0 °F 69% 30.22 in 10.0 mi SSW 9.2 mph - N/A   Overcast
1:51 AM 52.0 °F 43.0 °F 71% 30.23 in 10.0 mi SSW 5.8 mph - N/A   Overcast
2:51 AM 52.0 °F 43.0 °F 71% 30.23 in 10.0 mi SSW 6.9 mph - N/A   Overcast
3:51 AM 52.0 °F 44.1 °F 74% 30.25 in 10.0 mi South 6.9 mph - N/A   Overcast
4:51 AM 52.0 °F 44.1 °F 74% 30.25 in 10.0 mi South 6.9 mph - N/A   Overcast
5:51 AM 51.1 °F 44.1 °F 77% 30.26 in 10.0 mi South 5.8 mph - N/A   Overcast
6:51 AM 52.0 °F 44.1 °F 74% 30.26 in 10.0 mi South 6.9 mph - N/A   Overcast
7:51 AM 52.0 °F 45.0 °F 77% 30.28 in 10.0 mi South 5.8 mph - N/A   Overcast
8:51 AM 53.1 °F 45.0 °F 74% 30.28 in 10.0 mi South 6.9 mph - N/A   Overcast
9:51 AM 55.0 °F 46.9 °F 74% 30.27 in 10.0 mi SSW 6.9 mph - N/A   Overcast
10:51 AM 55.0 °F 46.9 °F 74% 30.27 in 10.0 mi South 8.1 mph - N/A   Overcast
11:13 AM 55.4 °F 46.4 °F 72% 30.26 in 10.0 mi South 10.4 mph - N/A   Overcast
11:51 AM 55.0 °F 46.9 °F 74% 30.25 in 10.0 mi South 9.2 mph - N/A   Overcast
12:15 PM 53.6 °F 50.0 °F 88% 30.24 in 2.5 mi South 9.2 mph - 0.00 in   Light Drizzle
12:24 PM 53.6 °F 51.8 °F 94% 30.23 in 2.5 mi South 6.9 mph - 0.00 in   Light Drizzle
12:45 PM 53.6 °F 51.8 °F 94% 30.22 in 3.0 mi South 5.8 mph - 0.00 in Rain Light Rain
12:51 PM 53.1 °F 51.1 °F 93% 30.22 in 3.0 mi South 8.1 mph - 0.00 in Rain Light Rain
1:32 PM 53.6 °F 50.0 °F 88% 30.20 in 10.0 mi South 9.2 mph 20.7 mph 0.01 in   Overcast
1:51 PM 54.0 °F 50.0 °F 86% 30.20 in 10.0 mi South 11.5 mph 19.6 mph 0.01 in   Overcast
2:08 PM 53.6 °F 50.0 °F 88% 30.18 in 9.0 mi South 9.2 mph - N/A   Overcast
2:51 PM 54.0 °F 50.0 °F 86% 30.18 in 9.0 mi South 9.2 mph - 0.00 in   Overcast
3:12 PM 53.6 °F 50.0 °F 88% 30.17 in 9.0 mi South 10.4 mph - 0.00 in   Overcast
3:51 PM 55.0 °F 50.0 °F 83% 30.15 in 9.0 mi SSE 10.4 mph 20.7 mph 0.00 in   Overcast
4:51 PM 55.0 °F 48.0 °F 77% 30.13 in 10.0 mi SSE 8.1 mph - 0.00 in Rain Light Rain
5:51 PM 55.9 °F 46.9 °F 72% 30.12 in 10.0 mi SSE 10.4 mph 18.4 mph 0.00 in   Overcast
6:51 PM 55.0 °F 45.0 °F 69% 30.10 in 10.0 mi SSE 13.8 mph 21.9 mph N/A   Overcast
7:51 PM 55.0 °F 44.1 °F 67% 30.08 in 10.0 mi SSE 13.8 mph 25.3 mph N/A   Overcast
8:51 PM 55.9 °F 44.1 °F 64% 30.05 in 10.0 mi SSE 12.7 mph 23.0 mph N/A   Overcast
9:51 PM 54.0 °F 48.0 °F 80% 30.03 in 8.0 mi South 15.0 mph 24.2 mph 0.00 in   Light Drizzle
10:27 PM 53.6 °F 48.2 °F 82% 30.02 in 4.0 mi South 16.1 mph 25.3 mph 0.00 in   Light Drizzle
10:51 PM 53.1 °F 50.0 °F 89% 30.01 in 4.0 mi South 10.4 mph - 0.01 in Rain Light Rain
11:28 PM 53.6 °F 48.2 °F 82% 29.99 in 10.0 mi South 10.4 mph - 0.00 in   Overcast
11:51 PM 54.0 °F 48.0 °F 80% 29.98 in 10.0 mi South 12.7 mph 19.6 mph 0.00 in Rain Light Rain